Elkwood, VA

4:34 AM EST on January 18, 2017 (GMT -0500)
Culpeper Regional

Weather History for KCJR - February, 2013

Change the Weather History Date:

Tuesday, February 26, 2013

  Actual Average (KOMH) Record (KOMH)
Temperature  
Mean Temperature 36 °F -  
Max Temperature 46 °F 48 °F 75 °F (1951)
Min Temperature 26 °F 26 °F 8 °F (1970)
Degree Days  
Heating Degree Days 29    
Moisture  
Dew Point 33 °F    
Average Humidity 91    
Maximum Humidity 100    
Minimum Humidity 10    
Precipitation  
Precipitation 0.88 in - - ()
Sea Level Pressure  
Sea Level Pressure 29.99 in    
Wind  
Wind Speed 2 mph (NNE)    
Max Wind Speed 9 mph    
Max Gust Speed 16 mph    
Visibility 7 miles    
Events Rain    
Averages and records for this station are not official NWS values.
T = Trace of Precipitation, MM = Missing Value Source: NWS Daily Summary

Daily Weather History Graph

Daily Weather History Graph

Search for Another Location

Airport or City:

Trip Planner

Search our weather history database for the weather conditions in past years. The results will help you decide how hot, cold, wet, or windy it might be!

Date:

Astronomy

Feb. 26, 2013 Rise Set
Actual Time 6:47 AM EST 6:01 PM EST
Civil Twilight 6:20 AM EST 6:28 PM EST
Nautical Twilight 5:50 AM EST 6:59 PM EST
Astronomical Twilight 5:19 AM EST 7:29 PM EST
Moon 7:14 PM EST (2/26) 6:50 AM EST (2/26)
Length of Visible Light 12h 07m
Length of Day
11h 14m
Full, 99% of the Moon is Illuminated
Feb 26
Full
Mar 4
Last Quarter
Mar 11
New
Mar 19
First Quarter
Mar 27
Full

Hourly Weather History & Observations

Time (EST) Temp. Windchill Dew Point Humidity Pressure Visibility Wind Dir Wind Speed Gust Speed Precip Events Conditions
12:15 AM 26.6 °F - -9.4 °F 21% 30.20 in 10.0 mi Calm Calm - N/A   Clear
12:35 AM 26.6 °F - 12.2 °F 55% 30.20 in 10.0 mi Calm Calm - N/A   Clear
12:55 AM 26.6 °F - 17.6 °F 69% 30.20 in 10.0 mi Calm Calm - N/A   Clear
1:15 AM 26.6 °F - 23.0 °F 86% 30.22 in 10.0 mi Calm Calm - N/A   Clear
1:35 AM 26.6 °F - 24.8 °F 93% 30.22 in 10.0 mi Calm Calm - N/A   Clear
1:55 AM 26.6 °F - 23.0 °F 86% 30.21 in 10.0 mi Calm Calm - N/A   Clear
2:15 AM 26.6 °F - 24.8 °F 93% 30.20 in 10.0 mi Calm Calm - N/A   Clear
2:35 AM 26.6 °F - 24.8 °F 93% 30.21 in 10.0 mi Calm Calm - N/A   Clear
2:55 AM 26.6 °F - 24.8 °F 93% 30.19 in 10.0 mi Calm Calm - N/A   Clear
3:15 AM 26.6 °F - 24.8 °F 93% 30.17 in 10.0 mi Calm Calm - N/A   Clear
3:35 AM 26.6 °F - 24.8 °F 93% 30.18 in 10.0 mi Calm Calm - N/A   Clear
3:55 AM 26.6 °F - 24.8 °F 93% 30.16 in 10.0 mi Calm Calm - N/A   Clear
4:15 AM 26.6 °F - 26.6 °F 100% 30.17 in 10.0 mi Calm Calm - N/A   Clear
4:35 AM 26.6 °F - 26.6 °F 100% 30.17 in 10.0 mi Calm Calm - N/A   Clear
4:55 AM 26.6 °F - 26.6 °F 100% 30.17 in 10.0 mi Calm Calm - N/A   Clear
5:15 AM 26.6 °F - 26.6 °F 100% 30.17 in 10.0 mi Calm Calm - N/A   Clear
5:35 AM 26.6 °F - 26.6 °F 100% 30.17 in 10.0 mi Calm Calm - N/A   Clear
5:55 AM 28.4 °F - 26.6 °F 93% 30.18 in 10.0 mi Calm Calm - N/A   Clear
6:15 AM 28.4 °F 24.6 °F 28.4 °F 100% 30.18 in 10.0 mi North 3.5 mph - N/A   Clear
6:35 AM 28.4 °F - 28.4 °F 100% 30.18 in 10.0 mi Calm Calm - N/A   Clear
6:55 AM 28.4 °F - 28.4 °F 100% 30.17 in 10.0 mi Calm Calm - N/A   Clear
7:15 AM 28.4 °F - 28.4 °F 100% 30.18 in 10.0 mi Calm Calm - N/A   Clear
7:35 AM 28.4 °F - 28.4 °F 100% 30.17 in 10.0 mi Calm Calm - N/A   Clear
7:55 AM 30.2 °F - 28.4 °F 93% 30.16 in 10.0 mi Calm Calm - N/A   Scattered Clouds
8:15 AM 30.2 °F - 28.4 °F 93% 30.17 in 10.0 mi Calm Calm - N/A   Overcast
8:35 AM 32.0 °F - 30.2 °F 93% 30.18 in 10.0 mi Calm Calm - N/A   Overcast
8:55 AM 33.8 °F - 30.2 °F 87% 30.18 in 10.0 mi Calm Calm - N/A   Overcast
9:15 AM 33.8 °F - 32.0 °F 93% 30.18 in 10.0 mi Calm Calm - N/A   Overcast
9:35 AM 35.6 °F - 30.2 °F 81% 30.17 in 10.0 mi Calm Calm - N/A   Overcast
9:55 AM 35.6 °F - 30.2 °F 81% 30.16 in 10.0 mi Calm Calm - N/A   Overcast
10:15 AM 37.4 °F - 30.2 °F 75% 30.15 in 10.0 mi Calm Calm - N/A   Overcast
10:35 AM 37.4 °F 34.9 °F 30.2 °F 75% 30.14 in 7.0 mi ENE 3.5 mph - N/A Rain Light Rain
10:55 AM 37.4 °F - 33.8 °F 87% 30.13 in 10.0 mi Calm Calm - N/A Rain Rain
11:15 AM 37.4 °F 34.9 °F 33.8 °F 87% 30.12 in 7.0 mi NE 3.5 mph - N/A Rain Rain
11:35 AM 37.4 °F 33.8 °F 33.8 °F 87% 30.11 in 4.0 mi NNE 4.6 mph - N/A Rain Light Rain
11:55 AM 37.4 °F 34.9 °F 35.6 °F 93% 30.11 in 4.0 mi NNE 3.5 mph - N/A Rain Light Rain
12:15 PM 37.4 °F 32.8 °F 37.4 °F 100% 30.09 in 3.0 mi NNE 5.8 mph - 0.01 in Rain Light Rain
12:35 PM 37.4 °F 33.8 °F 37.4 °F 100% 30.07 in 2.5 mi NNE 4.6 mph - 0.01 in Rain Rain
12:55 PM 39.2 °F 35.0 °F 39.2 °F 100% 30.05 in 4.0 mi NNE 5.8 mph - 0.01 in Rain Light Rain
1:15 PM 39.2 °F 35.9 °F 39.2 °F 100% 30.03 in 4.0 mi NE 4.6 mph - N/A Rain Light Rain
1:35 PM 39.2 °F 35.0 °F 39.2 °F 100% 30.02 in 4.0 mi NNE 5.8 mph - 0.01 in Rain Light Rain
1:55 PM 39.2 °F 35.0 °F 39.2 °F 100% 29.99 in 4.0 mi ENE 5.8 mph - 0.02 in Rain Light Rain
2:15 PM 39.2 °F 33.0 °F 39.2 °F 100% 29.96 in 3.0 mi NE 9.2 mph - 0.01 in Rain Light Rain
2:35 PM 41.0 °F 36.4 °F 41.0 °F 100% 29.93 in 2.5 mi ENE 6.9 mph - 0.02 in Rain Light Rain
2:55 PM 41.0 °F 37.1 °F 41.0 °F 100% 29.91 in 2.5 mi ENE 5.8 mph - 0.04 in Rain Rain
3:15 PM 41.0 °F 36.4 °F -9.4 °F 12% 29.88 in 3.0 mi ENE 6.9 mph 16.1 mph N/A Rain Light Rain
3:35 PM 42.8 °F 41.1 °F 17.6 °F 36% 29.90 in 4.0 mi NE 3.5 mph - 0.01 in Rain Light Rain
3:55 PM 42.8 °F 38.6 °F 42.8 °F 100% 29.86 in 1.5 mi ENE 6.9 mph - 0.05 in Rain Rain
4:15 PM 42.8 °F 38.6 °F -11.2 °F 10% 29.84 in 4.0 mi NE 6.9 mph - 0.03 in Rain Rain
4:35 PM 42.8 °F 38.6 °F 42.8 °F 100% 29.82 in 4.0 mi NE 6.9 mph - 0.06 in Rain Rain
4:55 PM 44.6 °F 43.1 °F 44.6 °F 100% 29.81 in 2.5 mi NE 3.5 mph - 0.09 in Rain Heavy Rain
5:15 PM 44.6 °F 41.4 °F 44.6 °F 100% 29.77 in 2.0 mi NE 5.8 mph - 0.04 in Rain Rain
5:35 PM 44.6 °F 41.4 °F 44.6 °F 100% 29.75 in 1.8 mi NE 5.8 mph - 0.10 in Rain Rain
5:55 PM 44.6 °F 41.4 °F 44.6 °F 100% 29.74 in 3.0 mi NNE 5.8 mph - 0.17 in Rain Heavy Rain
6:15 PM 44.6 °F 42.2 °F 44.6 °F 100% 29.73 in 4.0 mi NNE 4.6 mph - 0.02 in Rain Rain
6:35 PM 44.6 °F 42.2 °F 44.6 °F 100% 29.73 in 2.5 mi NE 4.6 mph - 0.12 in Rain Rain
6:55 PM 44.6 °F 41.4 °F 44.6 °F 100% 29.71 in 5.0 mi NNE 5.8 mph - 0.15 in Rain Rain
7:15 PM 46.4 °F 44.3 °F 46.4 °F 100% 29.72 in 3.0 mi North 4.6 mph - 0.06 in Rain Heavy Rain
7:35 PM 46.4 °F 43.5 °F 46.4 °F 100% 29.72 in 3.0 mi NNW 5.8 mph - 0.15 in Rain Heavy Rain
7:55 PM 46.4 °F 44.3 °F 46.4 °F 100% 29.74 in 7.0 mi North 4.6 mph - 0.23 in Rain Heavy Rain
8:15 PM 46.4 °F 42.4 °F 46.4 °F 100% 29.72 in 10.0 mi North 8.1 mph - 0.05 in Rain Light Rain
8:35 PM 46.4 °F 42.9 °F 46.4 °F 100% 29.72 in 7.0 mi NNW 6.9 mph - 0.05 in Rain Light Rain
8:55 PM 44.6 °F 39.7 °F 44.6 °F 100% 29.70 in 7.0 mi North 9.2 mph - 0.07 in Rain Heavy Rain
9:15 PM 44.6 °F 39.7 °F 44.6 °F 100% 29.69 in 10.0 mi North 9.2 mph - 0.04 in Rain Light Rain
9:35 PM 44.6 °F 40.2 °F 44.6 °F 100% 29.68 in 7.0 mi North 8.1 mph - 0.04 in Rain Light Rain
9:55 PM 44.6 °F 40.7 °F 44.6 °F 100% 29.67 in 5.0 mi North 6.9 mph - 0.04 in   Heavy Drizzle
10:15 PM 44.6 °F 40.7 °F 44.6 °F 100% 29.65 in 5.0 mi North 6.9 mph - 0.01 in   Drizzle
10:35 PM 44.6 °F 41.4 °F 44.6 °F 100% 29.64 in 5.0 mi North 5.8 mph - 0.01 in   Drizzle
10:55 PM 46.4 °F 42.9 °F 46.4 °F 100% 29.63 in 5.0 mi North 6.9 mph - 0.01 in   Drizzle
11:15 PM 44.6 °F 40.7 °F 44.6 °F 100% 29.62 in 4.0 mi North 6.9 mph - N/A   Drizzle
11:55 PM 44.6 °F 41.4 °F 44.6 °F 100% 29.62 in 2.5 mi NW 5.8 mph - N/A Rain Rain